Home > Weather > Allentown > Past weeks

Flag for U.S.A. Weather for the Past 2 Weeks in Allentown, Pennsylvania, U.S.A.

Now
13 °F

Clear.


Feels Like: 3 °F
Forecast: 7 / 24 °F
Wind: 7 mph from West

Location: Lehigh Valley International Airport

Current Time: Feb 12, 2016 at 5:48:11 AM

Latest Report: Feb 12, 2016 at 4:51 AM


Visibility: 10 mi

Pressure: 30.26 "Hg

Humidity: 56%

Dew point: 0 °F

Location of AllentownLocation

Historic Weather in Allentown — Graph

°F

Allentown Temperature Yesterday

Maximum temperature yesterday: 24 °F (at 12:51 AM)
Minimum temperature yesterday: 17 °F (at 6:51 AM)
Average temperature yesterday: 20 °F

High & Low Weather Summary for the Past Weeks

 TemperatureHumidityPressure
High56 °F (Feb 3, 5:51 PM)97% (Feb 3, 9:51 PM)30.44 "Hg (Feb 3, 9:51 PM)
Low10 °F (Jan 28, 6:51 AM)30% (Feb 7, 1:51 PM)29.51 "Hg (Jan 29, 7:51 AM)
Average34 °F65%29.95 "Hg
* Reported Jan 28 4:51 AM — Feb 12 4:51 AM, Allentown, Weather by CustomWeather, © 2016

Note: Actual official high and low records may vary slightly from our data, if they occured in-between our weather recording intervals... More about our weather records

Advertising

Allentown Weather History for the Previous 24 Hours

 ConditionsComfort  
Time TempWeatherWind HumidityBarometerVisibility
4:51 AM
Fri, Feb 12
13 °FClear.7 mph56%30.26 "Hg10 mi
3:51 AM11 °FClear.8 mph59%30.26 "Hg10 mi
2:51 AM14 °FClear.8 mph53%30.26 "Hg10 mi
1:51 AM15 °FClear.3 mph53%30.25 "Hg10 mi
12:51 AM17 °FPassing clouds.6 mph49%30.26 "Hg10 mi
11:51 PM
Thu, Feb 11
18 °FPassing clouds.10 mph52%30.24 "Hg10 mi
10:51 PM19 °FPassing clouds.9 mph54%30.22 "Hg10 mi
9:51 PM19 °FPassing clouds.13 mph57%30.21 "Hg10 mi
8:51 PM19 °FClear.12 mph57%30.18 "Hg10 mi
7:51 PM19 °FClear.10 mph62%30.16 "Hg10 mi
6:51 PM19 °FClear.10 mph59%30.12 "Hg10 mi
5:51 PM20 °FClear.9 mph55%30.09 "Hg10 mi
3:51 PM21 °FBroken clouds.17 mph57%30.03 "Hg10 mi
2:51 PM23 °FPartly sunny.15 mph53%29.99 "Hg10 mi
1:51 PM22 °FMostly cloudy.21 mph50%29.98 "Hg10 mi
12:51 PM23 °FMostly cloudy.18 mph38%29.97 "Hg10 mi
11:51 AM22 °FPartly sunny.21 mph40%29.98 "Hg10 mi
10:51 AM22 °FScattered clouds.22 mph42%29.98 "Hg10 mi
9:51 AM21 °FSunny.16 mph52%29.97 "Hg10 mi
8:55 AM19 °FLight snow. Mostly cloudy.8 mph68%29.94 "Hg2 mi
7:51 AM19 °FPassing clouds.9 mph54%29.93 "Hg10 mi
6:51 AM17 °FPassing clouds.7 mph56%29.91 "Hg10 mi
5:51 AM18 °FClear.7 mph57%29.89 "Hg10 mi
Weather by CustomWeather, © 2016

See weather overviewHow to use our weather pages